Tracking 19246 objects as of 21-Sep-2018
HD Live streaming from Space Station
objects crossing your sky now

FENGYUN 1C DEB

Track FENGYUN 1C DEB now!
10-day predictions


NORAD ID: 35135
Int'l Code: 1999-025DLP
Perigee: 777.9 km
Apogee: 902.2 km
Inclination: 98.8 °
Period: 101.6 minutes
Semi major axis: 7211 km
RCS: 0.0108 m2 (small)
Launch date: May 10, 1999
Source: People's Republic of China (PRC)
Launch site: Taiyaun Space Center, China (TSC)

Note: This is SATELLITE DEBRIS
aabbcc
Your satellite tracking list
Your tracking list is empty




NASA's NSSDC Master Catalog

Two Line Element Set (TLE):
1 35135U 99025DLP 18262.90310392 +.00000126 +00000-0 +80554-4 0  9993
2 35135 098.7905 294.9639 0086141 334.5464 148.6254 14.17769153503684
Source of the keplerian elements: AFSPC